Wind_Speed
84 86 88 89 91 92 94 95 96 97 95 92 93 94 94 93 91 91 91 91 90 89 87 85 84 83 82 80 79 78 77 75 74 73 72 70 69 69
88 89 91 92 93 94 95 95 95 96 96 90 90 91 92 92 90 89 89 89 89 88 87 86 85 84 83 82 81 80 79 77 76 75 74 72 71 71
91 92 93 93 93 93 92 90 89 88 88 82 80 82 84 84 84 84 83 83 83 83 83 83 83 83 82 82 81 80 80 79 77 77 75 74 73 72
92 93 92 91 89 86 84 82 80 79 78 75 70 72 73 74 74 75 75 75 76 76 76 77 78 79 79 79 79 79 79 78 77 76 75 75 74 73
92 91 87 84 80 77 75 73 71 69 69 67 62 62 63 64 65 65 66 67 68 69 69 70 71 73 74 75 76 76 76 76 75 75 75 74 73 72
87 83 78 74 70 68 66 64 63 63 62 60 57 56 56 57 58 58 59 60 61 62 63 64 64 65 67 69 70 71 72 73 73 73 73 72 72 71
76 71 67 64 62 61 59 58 58 57 56 55 53 52 51 51 52 53 54 55 55 56 57 58 59 60 61 62 63 65 66 68 68 69 69 69 69 69
66 62 59 57 56 55 54 54 53 53 52 51 49 48 46 46 47 48 48 50 50 50 51 52 53 54 56 57 59 61 62 64 65 65 65 65 66 66
59 56 54 53 52 51 50 50 49 49 48 48 46 44 43 42 43 43 44 45 45 46 46 46 47 48 50 52 54 56 57 59 61 62 63 64 65 65
54 52 50 49 48 48 47 46 45 45 45 45 44 42 41 40 40 40 40 41 41 41 42 42 43 44 46 48 49 51 53 55 57 59 60 61 62 62
50 49 48 46 46 46 45 44 42 41 42 42 42 41 40 39 38 38 38 38 38 38 39 40 41 42 43 44 46 49 51 52 54 55 56 57 58 60
47 46 45 44 43 43 43 42 41 40 40 40 39 39 38 37 37 37 37 37 37 37 37 39 40 42 42 43 44 46 48 49 51 52 54 56 57 59
45 43 42 42 41 41 41 40 40 39 38 37 37 36 36 36 36 36 36 35 36 36 36 38 39 40 41 42 43 45 46 48 49 51 52 54 57 58
43 41 40 40 40 39 39 39 38 37 36 36 35 35 35 35 35 35 34 34 34 35 36 37 38 39 40 41 42 43 45 47 49 50 52 53 55 56
41 40 40 39 38 37 37 37 36 35 35 34 34 34 34 33 33 33 33 33 33 34 35 36 38 39 40 40 41 43 44 46 48 50 52 53 54 55
40 39 39 38 37 36 35 35 35 34 33 33 32 32 32 32 32 33 33 33 34 35 36 37 38 39 40 41 42 43 44 46 48 50 52 53 54 55
37 36 35 35 34 34 34 33 33 33 32 31 31 31 30 31 31 32 32 33 34 35 36 37 39 40 41 41 42 43 44 46 47 49 50 51 52 53
35 34 33 33 33 32 32 32 32 31 31 30 30 29 29 30 30 31 32 33 34 35 36 37 38 39 40 40 41 43 44 45 46 48 50 50 50 51
33 33 32 32 32 32 31 31 31 30 30 29 29 29 29 29 30 30 31 32 33 34 35 36 37 38 39 39 39 41 42 44 45 46 47 48 47 48
32 32 31 31 31 31 30 30 29 29 28 28 28 28 28 29 29 30 30 31 32 33 34 35 36 37 37 37 37 37 40 42 43 44 44 45 44 45
31 31 31 31 30 29 29 28 27 27 27 27 27 27 27 27 27 28 28 29 30 31 32 32 34 35 35 35 34 34 36 39 41 41 42 42 41 42
31 31 31 30 29 28 28 27 26 26 26 26 26 26 26 26 26 27 27 28 29 29 30 31 32 33 34 34 33 33 34 37 39 40 40 40 41 41
30 30 30 29 28 27 26 25 25 25 25 25 25 25 25 26 27 27 28 28 29 29 30 30 31 32 33 33 33 33 34 36 37 39 39 40 41 40
Wind_Direction
294 293 292 291 290 289 288 286 285 283 281 279 278 276 274 272 270 269 268 266 265 263 262 261 261 260 260 260 260 260 260 260 261 261 262 261 261 260
296 295 294 292 291 290 288 287 285 284 282 280 278 276 275 273 270 269 267 266 264 263 262 260 259 259 258 258 258 258 258 258 259 259 260 260 260 259
297 296 295 294 292 291 289 288 287 285 284 282 279 277 275 273 271 269 267 266 265 263 261 260 258 257 256 256 256 256 256 256 257 257 258 258 258 258
298 297 296 295 293 292 290 289 288 287 286 285 281 278 276 274 272 270 268 266 265 263 261 259 258 256 255 255 254 255 255 255 255 255 256 256 256 256
299 298 297 295 294 292 291 290 288 287 286 286 284 280 277 276 274 272 269 267 265 263 261 259 258 256 255 254 253 253 253 253 253 253 253 254 255 255
300 299 297 295 294 292 291 290 289 288 287 286 285 282 279 277 275 272 270 267 265 264 262 260 258 257 255 254 253 252 252 252 252 252 252 253 253 254
300 298 296 295 294 292 291 290 289 289 288 287 286 283 281 278 276 273 271 268 266 264 263 260 258 256 254 253 252 251 250 250 250 250 251 252 252 252
300 297 296 294 293 292 292 291 290 289 288 287 286 284 282 279 276 274 272 269 267 265 263 261 259 257 254 253 251 250 249 248 249 249 250 250 250 251
299 298 296 295 293 293 292 291 291 290 289 288 286 285 282 279 277 275 272 270 268 266 264 262 260 258 255 253 251 250 249 249 248 249 249 250 251 251
300 298 297 295 294 293 292 292 291 290 288 287 287 286 283 280 278 275 272 270 268 266 265 262 259 258 255 253 252 251 250 250 250 250 250 250 251 251
301 299 297 296 295 294 294 293 292 290 288 287 286 284 283 280 277 274 272 270 268 266 264 263 261 258 256 254 253 252 250 250 249 249 249 250 251 251
302 300 298 297 296 295 295 294 293 290 288 287 286 284 281 279 276 274 272 270 268 267 265 263 261 259 257 256 254 253 252 251 251 251 251 251 251 251
303 301 299 298 297 296 295 295 294 291 289 287 285 282 280 278 276 274 273 271 270 269 267 264 262 261 259 257 256 255 254 253 253 253 253 252 252 253
303 302 301 299 298 297 295 295 294 292 290 288 286 282 279 277 276 274 273 272 270 269 268 267 265 262 261 259 258 257 257 256 256 255 255 255 254 254
303 303 302 301 299 297 296 295 294 293 291 290 288 284 280 277 275 274 272 272 271 271 270 268 266 264 263 262 261 260 260 260 259 258 257 256 256 256
303 302 302 301 300 298 297 296 295 293 292 291 289 286 282 278 276 275 274 273 272 271 270 269 267 266 265 264 264 263 262 261 261 260 259 258 258 258
303 303 302 301 300 299 298 297 296 295 293 292 290 287 284 280 278 277 277 276 275 273 272 271 269 268 267 266 265 264 264 263 262 261 261 260 260 259
306 305 304 303 302 301 299 298 296 295 294 292 291 289 286 282 280 280 279 278 277 276 274 273 271 270 269 268 267 266 265 264 263 263 262 262 261 260
307 307 306 305 304 303 301 299 298 297 295 293 292 290 289 286 284 283 282 281 280 278 277 276 275 273 272 271 269 269 268 267 266 265 264 263 262 260
308 308 308 307 307 305 303 302 300 298 297 296 294 292 291 289 287 286 285 284 283 281 280 279 277 276 275 274 273 271 270 269 267 266 265 264 263 261
309 309 309 309 309 307 305 303 302 301 300 299 297 296 294 293 291 290 289 287 286 285 283 282 280 279 278 277 275 272 271 271 271 270 269 267 264 262
310 310 310 310 310 309 306 304 303 302 301 301 300 299 297 296 295 294 292 291 290 289 287 285 284 283 281 280 278 276 275 274 273 272 271 270 267 264
311 312 312 311 310 310 308 307 305 303 303 303 302 301 300 299 298 296 295 294 293 292 290 289 288 286 285 283 281 280 278 276 275 274 273 272 270 266
Height
5627 5618 5609 5601 5591 5583 5574 5566 5558 5556 5560 5561 5551 5544 5539 5539 5537 5532 5531 5533 5534 5536 5539 5543 5546 5549 5552 5555 5558 5561 5564 5567 5570 5573 5577 5580 5583 5586
5603 5594 5584 5574 5564 5555 5546 5537 5528 5520 5521 5533 5522 5513 5506 5507 5506 5503 5502 5501 5504 5507 5511 5515 5519 5523 5526 5530 5534 5537 5541 5545 5548 5552 5555 5559 5563 5566
5577 5566 5557 5545 5535 5526 5516 5508 5500 5491 5486 5497 5494 5485 5478 5476 5476 5475 5474 5473 5475 5479 5482 5486 5491 5496 5500 5504 5509 5513 5517 5521 5526 5530 5534 5538 5542 5546
5550 5539 5528 5516 5507 5497 5489 5481 5474 5467 5460 5463 5468 5459 5453 5450 5449 5449 5448 5447 5449 5452 5455 5459 5464 5469 5474 5479 5484 5489 5493 5498 5503 5508 5513 5518 5521 5525
5523 5511 5501 5490 5481 5473 5465 5458 5452 5446 5440 5438 5441 5437 5432 5428 5426 5426 5425 5424 5425 5428 5431 5434 5439 5444 5449 5455 5460 5465 5470 5476 5481 5485 5490 5495 5500 5504
5496 5485 5476 5466 5459 5451 5445 5439 5433 5427 5423 5419 5419 5417 5413 5409 5406 5406 5405 5404 5406 5407 5410 5414 5418 5422 5427 5433 5438 5443 5448 5452 5458 5463 5468 5473 5478 5483
5474 5464 5455 5447 5440 5433 5427 5422 5416 5411 5407 5403 5401 5398 5396 5392 5390 5388 5387 5387 5388 5390 5392 5395 5399 5403 5407 5412 5416 5421 5426 5431 5437 5442 5447 5452 5457 5462
5454 5446 5438 5431 5425 5418 5412 5406 5401 5396 5392 5388 5385 5383 5381 5378 5375 5373 5372 5372 5374 5376 5375 5378 5381 5385 5389 5394 5398 5402 5407 5411 5417 5422 5427 5432 5437 5442
5436 5429 5422 5416 5409 5404 5398 5393 5388 5382 5378 5374 5371 5369 5366 5364 5362 5360 5359 5359 5359 5360 5362 5364 5366 5369 5372 5376 5380 5384 5389 5393 5398 5403 5408 5413 5417 5423
5419 5413 5407 5401 5395 5389 5384 5380 5375 5370 5365 5361 5358 5356 5353 5351 5349 5348 5346 5346 5347 5348 5349 5351 5352 5354 5357 5360 5364 5368 5372 5377 5381 5385 5390 5394 5399 5403
5406 5399 5393 5388 5382 5376 5371 5367 5363 5359 5354 5350 5346 5343 5341 5339 5337 5336 5335 5335 5335 5336 5337 5338 5340 5341 5343 5347 5350 5353 5357 5361 5365 5369 5373 5377 5381 5385
5393 5386 5380 5374 5369 5363 5358 5354 5350 5346 5342 5339 5335 5332 5330 5328 5326 5325 5324 5324 5324 5325 5326 5326 5327 5328 5331 5334 5336 5339 5342 5345 5348 5352 5356 5359 5363 5366
5379 5374 5368 5362 5357 5352 5347 5342 5338 5334 5330 5327 5324 5321 5319 5317 5316 5314 5313 5313 5313 5314 5314 5314 5315 5316 5318 5320 5322 5324 5327 5330 5333 5336 5339 5342 5345 5348
5367 5361 5356 5351 5346 5341 5336 5331 5327 5323 5319 5316 5313 5311 5309 5307 5305 5304 5303 5303 5303 5303 5302 5302 5303 5304 5305 5307 5309 5311 5312 5314 5317 5319 5322 5324 5327 5330
5355 5350 5345 5340 5335 5330 5326 5321 5317 5313 5309 5306 5303 5300 5298 5296 5295 5294 5293 5292 5292 5291 5291 5291 5291 5291 5292 5294 5295 5297 5298 5299 5300 5302 5304 5307 5309 5312
5345 5340 5334 5329 5324 5320 5316 5311 5307 5303 5299 5296 5293 5290 5288 5286 5284 5283 5282 5281 5281 5280 5279 5279 5278 5279 5280 5280 5281 5282 5283 5284 5284 5285 5286 5288 5291 5293
5334 5330 5325 5320 5315 5310 5306 5301 5297 5293 5290 5286 5283 5280 5278 5276 5274 5273 5272 5271 5270 5269 5267 5267 5266 5266 5266 5266 5267 5267 5267 5268 5268 5268 5269 5271 5273 5275
5324 5320 5315 5310 5306 5301 5297 5293 5288 5284 5281 5277 5274 5271 5268 5266 5264 5263 5261 5260 5258 5257 5255 5254 5253 5253 5253 5253 5253 5252 5251 5251 5251 5251 5252 5254 5256 5257
5316 5311 5306 5301 5297 5292 5288 5283 5279 5275 5272 5268 5265 5262 5259 5257 5254 5252 5250 5248 5247 5245 5243 5242 5241 5239 5239 5239 5239 5237 5236 5235 5235 5235 5235 5236 5238 5239
5307 5303 5298 5293 5288 5283 5279 5274 5270 5266 5263 5259 5256 5253 5250 5247 5245 5243 5240 5238 5236 5234 5232 5230 5228 5226 5225 5225 5225 5224 5221 5219 5219 5219 5219 5219 5221 5222
5300 5295 5290 5285 5280 5275 5270 5266 5262 5258 5255 5251 5248 5245 5242 5239 5236 5233 5231 5228 5226 5223 5221 5219 5216 5214 5212 5211 5211 5210 5207 5205 5203 5203 5203 5203 5204 5205
5292 5287 5282 5277 5272 5267 5262 5258 5254 5251 5247 5243 5240 5237 5234 5231 5228 5225 5222 5219 5216 5213 5211 5208 5205 5203 5201 5199 5197 5196 5195 5192 5189 5188 5187 5187 5186 5189
5284 5279 5274 5269 5264 5259 5255 5251 5247 5243 5240 5236 5233 5229 5226 5222 5219 5216 5213 5209 5206 5203 5200 5197 5194 5192 5189 5186 5185 5183 5181 5178 5175 5174 5173 5171 5170 5171